Home   Weather   Eupen   Past weeks

Flag for Belgium Past Weather in Eupen, Belgium — Yesterday and Last 2 Weeks

Now
54 °F

Sunny.


Feels Like: 52 °F
Forecast: 43 / 64 °F
Wind: 7 mph from Southeast

Location: Spa / La Sauveniere

Current Time: Sep 25, 2016 at 9:20:29 AM

Latest Report: Sep 25, 2016 at 8:00 AM


Visibility: 14 mi

Pressure: 30.08 "Hg

Humidity: 78%

Dew Point: 47 °F

Location of EupenLocation

Past Weather in Eupen — Graph

°F

Eupen Temperature Yesterday

Maximum temperature yesterday: 69 °F (at 4:00 PM)
Minimum temperature yesterday: 53 °F (at 3:00 AM)
Average temperature yesterday: 59 °F

High & Low Weather Summary for the Past Weeks

 TemperatureHumidityPressure
High83 °F (Sep 13, 5:00 PM)100% (Sep 18, 3:00 AM)30.32 "Hg (Sep 18, 3:00 AM)
Low50 °F (Sep 20, 6:00 AM)34% (Sep 14, 5:00 PM)29.80 "Hg (Sep 15, 11:00 AM)
Average61 °F73%30.05 "Hg
* Reported Sep 10 8:00 AM — Sep 25 8:00 AM, Eupen, Weather by CustomWeather, © 2016

Note: Actual official high and low records may vary slightly from our data, if they occured in-between our weather recording intervals... More about our weather records

Advertising

Eupen Weather History for the Previous 24 Hours

Scroll right to see more
 ConditionsComfort  
Time TempWeatherWind HumidityBarometerVisibility
8:00 AM
Sun, Sep 25
54 °FSunny.7 mph78%30.08 "Hg14 mi
7:00 AM54 °FClear.7 mph76%30.07 "Hg16 mi
6:00 AM54 °FClear.8 mph74%30.08 "Hg19 mi
5:00 AM55 °FClear.9 mph70%30.08 "Hg22 mi
4:00 AM55 °FClear.8 mph68%30.09 "Hg25 mi
3:00 AM55 °FClear.7 mph68%30.11 "Hg25 mi
2:00 AM56 °FClear.8 mph63%30.11 "Hg28 mi
1:00 AM57 °FClear.9 mph60%30.11 "Hg28 mi
12:00 AM57 °FClear.7 mph59%30.12 "Hg28 mi
11:00 PM
Sat, Sep 24
58 °FClear.7 mph58%30.13 "Hg28 mi
10:00 PM60 °FClear.3 mph56%30.13 "Hg28 mi
9:00 PM59 °FClear.N/A59%30.14 "Hg28 mi
8:00 PM58 °FClear.2 mph67%30.16 "Hg3 mi
6:00 PM68 °FSunny.5 mph45%30.14 "Hg22 mi
5:00 PM68 °FSunny.5 mph44%30.16 "Hg19 mi
4:00 PM69 °FSunny.5 mph44%30.18 "Hg18 mi
3:00 PM68 °FSunny.5 mph45%30.21 "Hg22 mi
2:00 PM67 °FSunny.5 mph42%30.23 "Hg25 mi
1:00 PM67 °FScattered clouds.3 mph59%30.25 "Hg19 mi
12:00 PM64 °FSunny.5 mph62%30.27 "Hg17 mi
11:00 AM62 °FSunny.5 mph68%30.28 "Hg14 mi
10:00 AM58 °FSunny.5 mph75%30.28 "Hg12 mi
9:00 AM56 °FSunny.6 mph82%30.29 "Hg9 mi
Weather by CustomWeather, © 2016

See weather overviewHow to use our weather pages